Temp
69 71 70 70 70 70 70 69 68 65 60 57 55 53 51 49 50 51 49 48 47 46 46 46 44 44 43 43 43 43 42 42 39 43 44 44 42 41 42 41 41 40 39
69 70 69 70 68 67 66 65 63 60 58 57 53 50 48 48 48 49 48 48 46 44 44 43 42 44 42 42 42 42 42 41 39 36 40 40 40 41 39 37 39 41 38
66 67 67 65 64 63 62 59 55 54 53 51 49 48 47 47 47 48 48 46 46 44 43 42 42 41 39 39 40 40 40 41 40 37 35 39 38 38 36 36 35 35 39
61 62 62 59 58 58 56 53 51 50 49 47 48 47 46 48 47 47 46 44 43 43 42 42 41 40 39 38 38 38 38 36 36 34 34 35 35 36 34 32 31 32 32
59 58 59 57 54 51 48 47 45 45 47 46 46 44 44 47 45 45 43 42 41 40 39 39 40 39 39 39 38 36 36 35 34 33 33 33 33 32 31 32 31 32 31
56 55 56 51 47 45 43 41 40 40 40 42 40 40 40 44 43 43 42 40 39 37 36 36 37 33 35 37 37 38 39 35 31 31 33 32 31 30 33 31 29 28 26
50 45 44 42 40 40 39 39 37 38 39 37 40 39 38 38 42 41 40 38 37 37 36 35 34 33 34 34 36 37 37 37 37 34 31 31 30 30 28 29 29 28 28
44 41 40 40 38 36 36 36 37 36 37 37 36 37 37 36 40 40 38 37 37 36 36 35 34 33 33 33 33 33 33 33 33 33 32 32 32 32 32 32 29 28 28
42 41 39 38 36 35 35 34 35 34 34 35 35 35 35 35 39 38 37 35 34 33 34 34 34 33 35 35 32 31 31 32 35 37 37 38 38 38 35 31 28 26 25
42 40 39 38 35 35 35 34 34 35 34 33 33 34 34 34 38 38 36 34 32 31 31 31 32 33 34 34 31 31 29 31 31 31 31 33 35 34 36 32 30 25 26
39 37 36 36 35 36 34 33 33 33 32 33 32 33 33 34 35 38 37 34 33 30 30 29 30 33 33 34 34 32 31 33 32 31 31 32 32 32 29 30 30 28 26
35 35 34 34 34 34 33 33 32 32 32 30 30 30 31 33 35 37 37 35 36 32 30 31 30 32 33 33 33 35 36 34 32 31 30 30 31 32 32 31 30 29 29
33 32 33 33 33 33 33 32 31 31 31 29 29 29 28 29 33 36 36 35 35 31 31 31 32 32 33 33 34 34 31 28 28 28 28 29 32 31 30 29 29 27 26
32 33 33 33 32 33 33 32 32 31 31 29 29 29 28 27 29 32 31 31 31 30 31 30 31 31 31 31 28 30 28 27 27 27 28 30 30 30 29 29 27 26 24
33 32 32 32 32 32 32 32 32 33 34 31 31 31 27 26 28 31 30 29 29 29 28 28 26 25 25 26 26 26 25 24 24 25 26 26 26 27 27 29 28 27 25
32 31 32 32 31 30 30 28 33 34 36 37 36 33 31 34 33 31 31 31 31 31 26 25 25 25 24 25 24 23 23 22 23 23 22 22 23 24 25 26 27 26 24
31 31 31 30 30 29 29 28 26 30 34 34 35 34 32 31 32 31 32 32 32 31 25 25 24 24 23 22 21 20 19 21 18 17 19 19 20 22 21 22 24 25 25
30 29 30 30 30 30 29 29 29 26 25 26 30 29 30 31 31 32 32 32 27 29 24 23 22 21 20 19 18 17 17 16 15 16 15 15 15 17 18 19 21 22 23
28 29 29 30 30 29 29 28 27 26 25 24 24 26 28 31 32 32 32 26 23 21 20 19 19 18 16 16 15 14 13 12 12 11 11 11 13 16 15 17 18 19 19
28 25 27 28 27 27 26 25 25 25 24 23 22 23 23 25 25 25 26 24 20 20 19 17 16 15 14 13 12 12 11 11 11 11 11 11 9 13 13 13 14 15 17
25 25 21 26 26 26 25 25 25 25 25 25 24 23 23 21 21 22 21 18 17 17 16 15 14 13 12 11 11 10 10 10 10 8 6 6 7 5 5 11 12 13 15
22 22 23 22 23 23 24 24 24 24 24 22 19 20 24 19 19 19 19 17 16 15 15 14 13 12 11 11 10 10 10 9 8 8 7 5 5 7 5 7 8 11 13
21 21 21 20 20 17 20 20 20 20 20 19 19 17 17 21 18 17 17 16 14 12 11 10 10 10 10 9 10 10 9 9 9 8 6 6 6 6 6 4 5 5 6
17 18 18 18 17 18 18 18 17 14 17 17 17 17 16 16 17 16 15 14 12 11 10 8 8 8 8 8 8 8 7 8 8 7 6 5 5 5 6 7 5 3 7
13 13 14 14 14 14 14 15 14 14 15 15 15 15 15 14 14 13 13 12 10 9 8 7 7 6 6 6 6 6 7 8 7 6 6 5 4 4 4 5 5 5 4
10 10 10 11 11 12 12 13 13 13 12 12 11 11 11 11 11 10 9 8 7 7 7 7 7 6 6 6 5 6 5 6 4 4 3 3 3 5 6 6 6 6 4
MSLP
1011.82 1012.02 1012.43 1012.91 1013.32 1013.90 1014.35 1014.84 1015.35 1016.12 1017.29 1018.30 1019.20 1019.85 1020.71 1021.36 1022.20 1022.99 1023.53 1024.46 1025.07 1025.70 1026.37 1026.97 1027.28 1027.56 1028.05 1028.35 1028.73 1028.88 1028.98 1028.92 1029.02 1028.74 1029.14 1029.28 1029.52 1029.46 1029.43 1029.66 1029.60 1029.56 1029.88
1010.78 1011.32 1011.70 1012.27 1012.82 1013.31 1013.89 1014.61 1015.17 1016.27 1017.05 1017.78 1018.67 1019.42 1020.18 1021.17 1021.77 1022.69 1023.15 1023.84 1024.83 1025.70 1026.35 1026.74 1027.20 1027.66 1028.05 1028.42 1028.82 1029.03 1029.09 1029.16 1029.51 1029.39 1029.57 1029.49 1029.57 1029.47 1029.52 1029.70 1029.66 1029.58 1029.69
1010.82 1010.96 1011.20 1011.47 1012.15 1012.86 1013.41 1014.26 1014.84 1015.99 1016.70 1017.72 1018.42 1019.13 1019.59 1020.65 1021.18 1022.16 1022.64 1023.41 1024.38 1025.16 1025.91 1026.40 1026.88 1027.46 1027.91 1028.25 1028.58 1029.04 1029.10 1029.27 1029.46 1029.52 1029.67 1029.61 1029.50 1029.46 1029.47 1029.63 1029.74 1029.59 1029.45
1011.27 1011.33 1011.48 1011.98 1012.45 1012.87 1013.72 1014.29 1015.11 1015.92 1016.71 1017.43 1018.06 1018.58 1019.55 1020.07 1021.13 1021.43 1022.58 1023.14 1024.05 1024.90 1025.52 1026.03 1026.53 1027.02 1027.47 1027.82 1028.24 1028.74 1029.04 1029.19 1029.38 1029.39 1029.57 1029.59 1029.52 1029.37 1029.45 1029.62 1029.62 1029.49 1029.44
1011.62 1011.66 1011.97 1012.63 1013.22 1013.41 1014.01 1014.48 1015.25 1016.11 1016.75 1017.43 1018.00 1018.68 1019.83 1019.52 1020.68 1021.11 1022.13 1022.93 1023.59 1024.63 1025.36 1025.97 1026.48 1026.90 1027.32 1027.57 1028.08 1028.51 1028.84 1028.90 1029.09 1029.17 1029.38 1029.40 1029.34 1029.44 1029.59 1029.72 1029.66 1029.44 1029.07
1012.06 1012.46 1012.64 1012.85 1013.54 1014.39 1014.63 1014.98 1015.52 1016.25 1016.86 1017.49 1018.15 1018.61 1019.44 1020.02 1020.55 1020.93 1021.87 1022.66 1023.60 1024.39 1025.11 1025.87 1026.57 1027.30 1027.52 1027.77 1028.15 1028.45 1028.53 1028.57 1028.79 1028.97 1029.23 1029.21 1029.26 1029.36 1029.37 1029.49 1029.60 1029.47 1029.20
1011.93 1012.45 1013.16 1013.69 1014.20 1014.84 1015.35 1015.42 1015.55 1016.22 1016.91 1017.59 1018.13 1018.74 1019.06 1020.22 1020.50 1021.01 1021.80 1022.63 1023.46 1024.29 1024.93 1025.69 1026.52 1026.99 1027.22 1027.73 1028.10 1028.47 1028.74 1028.55 1028.49 1028.72 1028.99 1028.99 1029.21 1029.15 1029.22 1029.32 1029.57 1029.59 1029.39
1012.11 1012.66 1012.93 1013.81 1014.62 1015.17 1015.21 1015.66 1015.91 1016.23 1016.80 1017.41 1018.07 1018.93 1019.33 1020.15 1020.56 1021.22 1021.67 1022.49 1023.41 1024.26 1024.79 1025.46 1026.03 1026.52 1026.89 1027.35 1027.90 1028.16 1028.27 1028.37 1028.48 1028.59 1028.76 1028.82 1028.91 1028.92 1028.87 1029.08 1029.37 1029.36 1029.35
1011.74 1012.58 1013.35 1014.13 1014.98 1015.68 1016.36 1016.49 1016.42 1016.48 1016.83 1017.46 1018.22 1018.88 1019.37 1020.09 1020.74 1021.03 1021.60 1022.45 1023.37 1024.26 1024.76 1025.20 1025.60 1026.15 1026.53 1027.05 1027.68 1027.74 1027.90 1027.97 1028.15 1028.11 1028.04 1028.04 1028.00 1027.96 1028.30 1028.71 1028.95 1029.05 1028.88
1011.92 1012.44 1013.18 1013.91 1014.64 1015.61 1016.09 1016.85 1017.00 1017.10 1017.17 1017.29 1018.25 1018.84 1019.63 1019.77 1020.59 1021.26 1021.61 1022.41 1023.37 1024.09 1024.70 1025.41 1025.83 1026.10 1026.45 1026.84 1027.32 1027.15 1027.60 1027.67 1027.78 1027.79 1027.79 1027.74 1027.65 1027.54 1027.77 1028.15 1028.40 1028.64 1028.54
1011.94 1012.78 1013.41 1014.07 1014.49 1014.92 1016.16 1016.79 1017.24 1017.43 1017.90 1018.55 1018.84 1019.21 1019.70 1019.96 1020.58 1021.44 1021.63 1022.29 1022.95 1023.90 1024.51 1025.17 1025.50 1025.78 1026.27 1026.67 1026.54 1026.89 1027.03 1027.28 1027.43 1027.43 1027.40 1027.31 1027.29 1027.36 1027.67 1027.91 1027.79 1028.07 1028.03
1012.99 1013.45 1013.85 1014.22 1014.97 1015.13 1015.58 1016.74 1017.44 1017.75 1018.28 1018.75 1019.50 1020.14 1020.20 1020.35 1020.77 1021.38 1021.86 1022.34 1022.80 1023.49 1024.16 1024.75 1025.31 1025.58 1025.97 1026.14 1026.16 1026.40 1026.39 1026.58 1026.92 1026.92 1026.88 1026.74 1026.76 1026.67 1026.76 1027.00 1027.13 1027.37 1027.52
1013.64 1014.25 1014.76 1014.67 1014.99 1015.58 1015.84 1016.31 1017.03 1017.75 1018.18 1018.64 1019.17 1019.63 1020.62 1021.09 1021.15 1021.41 1021.65 1022.25 1022.88 1023.55 1023.98 1024.50 1024.97 1025.37 1025.74 1025.32 1025.66 1025.79 1026.16 1026.54 1026.55 1026.56 1026.45 1026.39 1026.16 1026.08 1026.35 1026.62 1026.74 1026.99 1027.25
1014.05 1014.53 1014.78 1015.38 1015.77 1016.03 1016.43 1016.84 1017.02 1017.51 1017.63 1017.94 1018.37 1019.09 1020.01 1020.85 1021.25 1021.34 1021.76 1022.32 1023.01 1023.60 1024.06 1024.47 1024.85 1025.28 1025.33 1025.11 1025.70 1025.77 1026.12 1026.24 1026.24 1026.30 1026.28 1026.15 1025.95 1025.93 1025.99 1025.99 1026.21 1026.43 1026.72
1014.61 1014.72 1014.96 1015.17 1015.79 1016.16 1016.55 1017.12 1017.72 1017.98 1017.79 1017.67 1017.86 1018.38 1019.08 1019.96 1020.44 1021.00 1021.57 1022.13 1022.66 1023.27 1023.84 1024.47 1024.87 1024.83 1024.82 1025.23 1025.61 1025.88 1026.10 1026.28 1026.35 1026.21 1026.12 1026.10 1025.98 1025.93 1025.73 1025.54 1025.58 1025.63 1025.83
1015.45 1015.34 1015.31 1015.73 1016.19 1016.46 1016.88 1017.57 1018.02 1018.10 1018.19 1018.48 1018.53 1018.61 1019.13 1019.51 1020.22 1021.01 1021.61 1022.19 1022.56 1023.00 1023.78 1024.11 1024.06 1024.28 1024.79 1025.29 1025.62 1025.86 1026.08 1026.21 1026.18 1026.18 1026.19 1026.08 1025.93 1025.73 1025.65 1025.43 1025.22 1024.93 1025.03
1015.08 1015.47 1015.95 1016.43 1016.65 1016.96 1017.44 1017.83 1018.19 1018.46 1018.62 1018.68 1018.85 1019.12 1019.50 1019.69 1020.14 1020.78 1021.43 1021.95 1022.44 1022.94 1023.32 1023.79 1024.06 1024.33 1024.91 1025.38 1025.69 1025.91 1026.00 1026.11 1026.33 1026.55 1026.42 1026.14 1025.87 1025.61 1025.76 1025.42 1025.05 1024.76 1024.41
1015.64 1015.79 1015.91 1016.04 1016.51 1017.15 1017.66 1018.05 1018.43 1018.96 1019.09 1019.19 1019.37 1019.51 1019.70 1019.85 1020.22 1020.78 1021.34 1021.98 1022.42 1022.54 1023.17 1023.58 1023.97 1024.19 1024.69 1025.17 1025.60 1025.89 1026.07 1026.24 1026.35 1026.33 1026.29 1026.19 1026.08 1025.93 1025.67 1025.37 1025.06 1024.69 1024.35
1016.70 1016.72 1016.80 1016.97 1017.00 1017.07 1017.37 1017.79 1018.25 1018.73 1019.14 1019.43 1019.72 1019.93 1020.00 1020.19 1020.47 1020.94 1021.30 1021.63 1022.15 1022.60 1022.87 1023.49 1023.98 1024.12 1024.69 1025.25 1025.63 1025.82 1026.05 1026.26 1026.35 1026.39 1026.45 1026.24 1026.05 1025.77 1025.47 1025.25 1024.99 1024.82 1024.43
1017.44 1017.73 1017.82 1017.75 1017.77 1018.00 1018.05 1018.20 1018.50 1018.60 1018.78 1019.22 1019.62 1019.76 1020.05 1020.38 1020.43 1020.72 1021.11 1021.39 1021.91 1022.25 1022.65 1023.31 1023.77 1023.95 1024.51 1025.04 1025.40 1025.69 1025.83 1025.85 1025.93 1026.03 1026.15 1026.10 1026.00 1025.92 1025.54 1025.29 1024.92 1024.71 1024.44
1018.28 1018.26 1018.47 1018.23 1018.32 1018.23 1018.25 1018.39 1018.52 1018.72 1019.07 1019.49 1019.86 1020.08 1020.34 1020.48 1020.70 1021.00 1021.33 1021.90 1022.18 1022.49 1022.76 1023.15 1023.47 1023.63 1024.18 1024.67 1024.99 1025.24 1025.42 1025.41 1025.50 1025.57 1025.75 1025.90 1025.87 1025.91 1025.79 1025.51 1025.03 1024.53 1024.38
1019.47 1018.91 1018.82 1018.86 1018.83 1018.78 1018.55 1018.52 1018.65 1018.91 1019.20 1019.61 1020.04 1020.43 1020.51 1020.94 1021.09 1021.31 1021.54 1021.83 1022.25 1022.60 1022.97 1023.23 1023.54 1023.73 1023.93 1024.27 1024.53 1024.73 1024.83 1024.99 1025.05 1025.19 1025.40 1025.56 1025.62 1025.66 1025.52 1025.16 1024.61 1024.26 1024.09
1020.29 1020.01 1019.90 1019.64 1019.42 1019.31 1019.36 1019.36 1019.31 1019.34 1019.45 1019.70 1020.01 1020.30 1020.51 1020.47 1020.84 1021.19 1021.54 1021.93 1022.33 1022.72 1022.99 1023.22 1023.30 1023.51 1023.76 1024.04 1024.17 1024.25 1024.36 1024.43 1024.49 1024.70 1024.95 1025.04 1025.17 1025.13 1025.07 1024.67 1024.47 1024.15 1023.97
1021.26 1020.71 1020.25 1020.27 1020.31 1020.21 1020.03 1019.93 1019.92 1019.99 1019.98 1020.04 1020.21 1020.37 1020.52 1020.75 1021.03 1021.19 1021.43 1021.73 1022.03 1022.39 1022.60 1022.87 1023.06 1023.10 1023.25 1023.40 1023.57 1023.75 1024.00 1024.12 1024.16 1024.23 1024.50 1024.67 1024.70 1024.72 1024.48 1024.20 1024.16 1023.85 1023.83
1022.42 1022.01 1021.39 1020.87 1020.74 1020.76 1020.76 1020.53 1020.43 1020.58 1020.48 1020.53 1020.58 1020.48 1020.58 1020.79 1021.02 1021.21 1021.35 1021.70 1022.07 1022.25 1022.46 1022.77 1023.03 1023.07 1023.03 1023.06 1023.15 1023.27 1023.43 1023.45 1023.56 1023.72 1023.88 1024.04 1024.18 1024.05 1023.87 1023.65 1023.80 1023.72 1023.39
1022.79 1022.76 1022.57 1021.96 1021.56 1021.15 1021.06 1021.17 1020.94 1021.01 1021.02 1020.87 1020.83 1020.85 1020.91 1021.01 1021.15 1021.24 1021.44 1021.62 1021.71 1021.88 1021.94 1022.05 1022.13 1022.30 1022.38 1022.52 1022.61 1022.83 1023.08 1023.14 1023.20 1023.23 1023.46 1023.37 1023.20 1023.10 1022.78 1022.74 1022.71 1022.81 1022.80
Wind_Speed
15 15 15 15 16 14 13 12 11 12 12 12 12 13 13 11 10 9 9 9 9 8 6 7 6 6 4 4 2 2 2 1 2 1 1 2 2 3 4 4 4 3 4
15 15 16 14 13 14 14 12 9 11 11 13 13 13 12 12 12 10 12 11 10 9 8 8 8 5 6 5 4 4 2 2 1 1 1 1 1 2 3 3 4 3 2
12 14 14 15 15 15 14 11 9 10 11 11 12 13 14 13 12 11 11 11 10 9 9 8 9 8 6 5 4 4 3 3 3 1 2 1 1 2 2 2 3 3 1
9 10 11 9 9 10 9 10 10 10 11 12 12 13 13 13 11 12 11 11 10 8 7 7 8 7 7 7 5 4 4 3 3 3 2 3 2 2 0 2 3 1 3
9 8 8 5 6 6 7 7 7 8 9 10 10 9 8 12 10 13 12 11 11 10 7 6 5 5 6 6 4 5 5 3 2 2 2 2 1 1 2 3 4 5 5
7 6 5 4 4 4 6 7 7 7 8 9 11 11 12 8 14 16 13 11 10 10 9 7 5 6 7 7 6 3 4 4 2 1 3 3 2 2 1 3 2 4 3
6 5 5 5 6 5 5 7 8 9 9 9 10 11 11 5 19 18 14 9 9 8 9 8 6 4 6 5 8 9 8 7 7 4 5 4 2 2 2 2 4 2 5
5 5 6 6 5 5 6 7 7 8 10 10 9 8 9 8 18 17 14 9 7 7 7 7 7 7 6 5 5 5 5 4 4 3 4 5 5 4 3 2 4 3 6
7 6 6 6 5 5 3 5 6 7 7 7 8 10 11 10 18 20 13 9 8 7 6 6 6 6 9 10 5 5 4 4 6 11 11 12 11 11 8 3 3 4 4
6 6 6 6 7 6 6 6 3 6 7 8 8 6 7 11 17 18 12 7 8 6 5 5 7 6 10 11 7 4 5 4 3 3 3 4 8 7 10 6 3 6 4
5 5 5 5 7 7 6 3 5 6 7 6 7 6 7 9 12 18 15 7 7 6 6 5 4 11 11 12 10 5 5 2 5 5 5 5 5 5 4 6 6 6 6
4 4 5 6 4 5 9 6 6 7 7 7 7 5 4 5 10 16 15 9 11 7 6 5 5 12 11 11 6 9 10 7 3 4 5 5 5 5 5 6 7 6 6
4 3 2 4 5 6 8 9 7 8 7 6 6 7 5 3 5 15 15 11 11 4 4 7 9 11 12 6 8 9 4 2 4 5 5 5 4 1 1 1 3 3 4
3 3 4 4 3 3 2 3 6 7 8 8 9 8 7 6 6 6 6 7 10 6 8 5 6 6 6 3 2 4 3 3 3 4 5 4 3 3 4 4 4 4 5
3 3 3 3 3 3 2 3 3 4 7 8 8 8 10 9 9 12 11 7 6 7 6 4 4 4 3 3 3 3 2 2 4 4 5 4 4 5 5 3 5 5 6
3 2 2 2 2 2 3 3 4 1 5 7 8 7 4 7 16 18 17 14 13 13 4 4 5 4 4 4 3 3 2 4 3 1 2 3 4 4 5 4 4 5 6
4 3 3 2 2 2 3 4 4 3 5 5 8 9 10 9 16 18 17 15 14 12 4 4 3 3 3 3 3 3 3 1 2 3 4 3 3 3 4 5 5 6 7
4 4 1 2 3 3 3 4 4 4 4 3 5 6 8 12 15 17 17 13 6 9 3 3 4 3 3 4 3 3 3 2 3 3 2 2 2 3 4 5 6 6 7
5 3 2 1 1 3 4 4 4 4 3 3 2 4 3 9 12 13 14 4 6 5 4 4 4 4 4 3 3 3 2 2 2 1 2 2 3 4 4 5 5 8 7
5 7 5 2 1 0 2 3 4 4 5 5 5 5 4 4 5 6 6 4 5 3 3 4 5 4 4 4 4 4 4 4 4 4 3 2 2 4 4 4 5 6 6
4 3 4 2 1 0 1 2 3 3 4 3 3 3 7 3 2 2 2 2 2 3 3 4 4 5 5 5 5 5 4 4 4 3 2 2 2 2 2 5 5 5 6
5 4 3 2 2 1 0 1 1 1 1 2 2 2 7 4 3 3 3 3 3 3 2 3 3 4 4 5 5 5 5 5 4 4 4 3 3 4 3 4 3 4 5
5 5 4 4 3 2 0 1 1 2 2 2 2 3 3 3 4 4 3 3 4 4 4 4 4 3 4 4 4 4 5 5 4 3 3 3 4 4 4 3 3 3 3
6 5 4 3 4 3 3 2 1 2 2 1 2 2 3 3 2 3 3 3 4 4 4 4 4 6 5 5 5 5 5 4 3 4 5 5 5 5 5 5 2 3 5
6 6 5 4 4 4 3 2 2 2 2 2 2 2 2 3 3 4 3 3 3 3 4 4 4 6 7 8 7 7 7 9 6 6 5 6 7 8 6 4 5 5 5
5 5 5 4 4 4 3 4 3 3 3 2 2 2 1 2 3 3 3 4 4 5 6 5 6 8 7 6 7 8 10 11 9 10 7 7 7 7 7 7 8 6 5
Wind_Direction
217 218 214 215 212 211 214 210 202 175 173 176 173 164 161 154 155 155 147 149 146 147 150 154 146 147 149 152 175 194 198 244 261 81 68 59 331 14 22 25 4 32 41
212 213 214 212 208 207 207 203 179 179 174 177 172 162 155 161 159 164 159 158 157 157 160 156 154 164 156 162 173 194 196 171 280 272 326 6 332 17 17 37 357 12 44
220 214 211 205 202 204 199 180 155 168 169 169 165 170 163 166 162 163 159 153 155 161 164 165 159 166 162 167 174 176 184 191 207 222 275 281 271 82 4 70 346 324 33
222 222 215 202 200 192 180 170 169 165 167 168 175 169 167 161 162 147 155 150 149 155 158 161 160 170 172 167 169 170 175 185 192 207 228 249 243 99 93 20 332 337 317
221 215 224 183 183 154 147 150 145 160 169 169 158 153 160 154 160 152 158 154 151 149 149 147 156 161 152 159 164 170 183 194 186 186 241 235 235 31 347 330 316 321 292
221 230 223 153 142 146 139 135 133 150 149 154 162 156 153 170 159 155 156 152 149 152 154 149 146 145 164 172 198 208 207 196 179 188 249 239 229 193 285 322 312 321 333
200 137 138 148 158 158 153 155 155 157 155 158 163 164 148 164 161 155 147 144 147 155 153 155 154 167 165 172 203 216 236 249 242 241 253 243 248 221 128 297 296 273 272
175 174 163 163 173 168 159 167 158 157 163 162 152 155 147 158 157 155 139 135 137 143 149 159 160 162 173 169 184 203 219 224 240 238 245 260 261 239 179 262 279 284 283
170 175 162 153 139 149 171 169 156 147 142 154 159 161 154 154 164 156 142 137 139 146 149 150 149 149 171 184 188 206 230 240 244 260 259 253 256 240 201 183 246 244 282
177 162 146 147 151 174 166 175 175 163 155 139 136 135 148 143 162 165 146 140 146 146 137 134 160 157 178 194 211 191 238 247 229 259 268 271 269 229 234 213 206 252 253
128 131 137 149 158 154 146 130 149 139 128 133 131 128 142 149 163 173 163 155 157 151 157 166 170 188 193 212 209 211 238 249 266 265 257 250 229 210 210 220 198 206 239
103 130 137 135 141 142 142 136 142 146 149 147 142 129 106 136 164 179 176 167 161 156 166 158 166 186 199 213 216 246 260 268 252 256 255 260 259 239 211 209 203 205 231
99 88 84 110 140 156 153 152 150 160 164 158 164 157 153 156 170 175 176 170 169 146 139 161 171 191 212 212 246 251 246 227 237 246 251 259 252 205 111 149 185 196 236
108 111 115 131 130 120 113 169 173 183 179 174 174 173 163 166 170 163 157 165 175 162 166 166 191 196 204 181 188 223 213 226 235 247 257 277 304 271 238 226 230 201 214
95 103 113 113 150 146 136 178 214 240 214 191 192 176 166 178 188 178 170 173 173 172 147 164 187 197 172 196 206 211 217 228 231 231 231 252 269 276 276 262 237 221 237
43 61 90 113 139 130 130 84 9 217 205 212 189 166 152 158 172 182 186 186 181 179 175 202 203 181 198 203 206 212 212 229 240 286 300 275 260 265 276 277 272 235 235
44 61 68 56 90 132 154 167 149 128 119 154 161 163 166 168 175 179 184 188 194 188 207 211 200 177 191 204 208 212 227 216 53 259 258 272 281 276 286 276 273 268 256
31 52 97 148 163 175 179 185 163 164 146 135 129 139 157 158 167 177 186 185 196 200 181 201 205 174 184 199 208 220 229 239 239 251 257 267 282 274 274 277 278 281 282
9 16 358 344 181 172 165 146 145 143 151 133 106 86 155 185 182 192 195 190 192 198 181 187 195 170 182 194 203 202 207 227 252 310 273 258 258 266 264 271 280 290 288
26 16 354 356 29 180 150 156 170 168 169 172 184 191 169 176 184 192 209 192 180 176 162 192 188 173 180 187 193 200 208 210 212 214 233 260 281 281 283 284 278 282 287
17 26 6 359 335 275 206 220 198 187 197 195 193 173 178 176 188 191 197 193 199 215 202 199 190 175 182 189 194 200 209 216 214 199 204 226 236 257 266 277 279 276 277
356 7 8 7 2 350 32 46 65 141 118 133 129 155 208 187 206 209 202 192 194 200 198 195 194 197 192 195 195 203 209 213 209 200 212 200 220 241 246 256 257 268 274
359 357 4 9 16 37 318 58 163 169 164 165 162 178 201 215 192 195 197 184 188 196 189 196 194 193 196 201 211 213 218 216 209 195 208 221 237 241 242 253 263 264 269
356 358 4 7 12 347 353 356 31 354 332 257 209 209 206 220 233 212 206 200 196 198 191 193 210 212 207 204 200 206 221 230 221 211 213 230 241 245 248 250 259 259 271
354 350 354 3 358 352 339 330 333 312 296 271 257 232 223 219 224 226 219 212 211 217 213 208 217 226 226 221 218 218 224 234 221 215 217 224 241 246 249 244 251 257 255
358 351 344 343 343 347 338 324 321 319 306 292 278 284 276 250 241 237 224 215 214 218 219 216 218 221 227 232 230 231 236 237 235 234 228 227 231 238 234 237 232 238 239